Weather History for KAKR - May, 2013

Change the Weather History Date:

Tuesday, May 28, 2013

  Actual Average (KCAK) Record (KCAK)
Temperature  
Mean Temperature 68 °F 62 °F  
Max Temperature 82 °F 73 °F 93 °F (1911)
Min Temperature 53 °F 52 °F 34 °F (1907)
Degree Days  
Heating Degree Days 0 5  
Month to date heating degree days 214  
Since 1 July heating degree days 6090  
Cooling Degree Days 2 2  
Month to date cooling degree days 29  
Year to date cooling degree days 35  
Growing Degree Days 18 (Base 50)    
Moisture  
Dew Point 59 °F    
Average Humidity 74    
Maximum Humidity 93    
Minimum Humidity 52    
Precipitation  
Precipitation 0.39 in 0.14 in - ()
Month to date precipitation 3.85  
Year to date precipitation 15.30  
Snow  
Snow 0.00 in 0.00 in - ()
Month to date snowfall 0.1  
Since 1 July snowfall 47.5  
Snow Depth -    
Sea Level Pressure  
Sea Level Pressure 29.98 in    
Wind  
Wind Speed 7 mph (SSW)    
Max Wind Speed 20 mph    
Max Gust Speed 25 mph    
Visibility 9 miles    
Events Rain    
T = Trace of Precipitation, MM = Missing Value Source: NWS Daily Summary

Daily Weather History Graph

Daily Weather History Graph

Search for Another Location

Airport or City:

Trip Planner

Search our weather history database for the weather conditions in past years. The results will help you decide how hot, cold, wet, or windy it might be!

Date:

Astronomy

May. 28, 2013 Rise Set
Actual Time 5:57 AM EDT 8:49 PM EDT
Civil Twilight 5:25 AM EDT 9:21 PM EDT
Nautical Twilight 4:44 AM EDT 10:02 PM EDT
Astronomical Twilight 3:56 AM EDT 10:50 PM EDT
Moon No Moon Rise 9:45 AM EDT (5/28)
Length of Visible Light 15h 56m
Length of Day
14h 51m
Waning Gibbous, 83% of the Moon is Illuminated
May 28
Waning Gibbous
May 31
Last Quarter
Jun 8
New
Jun 16
First Quarter
Jun 23
Full

Hourly Weather History & Observations

Time (EDT) Temp. Heat Index Dew Point Humidity Pressure Visibility Wind Dir Wind Speed Gust Speed Precip Events Conditions
12:54 AM 53.1 °F - 50.0 °F 89% 30.07 in 6.0 mi East 3.5 mph - 0.09 in Rain Rain
1:54 AM 53.1 °F - 50.0 °F 89% 30.04 in 9.0 mi SE 5.8 mph - 0.05 in Rain Light Rain
2:54 AM 54.0 °F - 51.1 °F 90% 30.01 in 8.0 mi SE 6.9 mph - 0.01 in Rain Light Rain
3:54 AM 54.0 °F - 52.0 °F 93% 29.99 in 5.0 mi Calm Calm - 0.06 in Rain Rain
4:54 AM 55.0 °F - 53.1 °F 93% 29.99 in 7.0 mi ESE 3.5 mph - 0.15 in Rain Light Rain
5:54 AM 55.0 °F - 52.0 °F 89% 30.00 in 9.0 mi South 4.6 mph - 0.00 in   Mostly Cloudy
6:54 AM 55.9 °F - 53.1 °F 90% 30.01 in 8.0 mi Calm Calm - N/A   Overcast
7:54 AM 59.0 °F - 55.9 °F 90% 30.02 in 10.0 mi South 5.8 mph - N/A   Mostly Cloudy
8:54 AM 62.1 °F - 57.9 °F 86% 30.03 in 10.0 mi SW 4.6 mph - N/A   Mostly Cloudy
9:54 AM 63.0 °F - 59.0 °F 87% 30.04 in 10.0 mi SSW 9.2 mph - 0.00 in   Overcast
10:54 AM 66.9 °F - 62.1 °F 84% 30.02 in 10.0 mi SSW 10.4 mph - N/A   Mostly Cloudy
11:54 AM 70.0 °F - 63.0 °F 78% 30.01 in 10.0 mi SSW 12.7 mph - 0.00 in   Overcast
12:54 PM 72.0 °F - 64.0 °F 76% 30.01 in 10.0 mi SSW 10.4 mph - N/A   Scattered Clouds
1:54 PM 77.0 °F - 66.0 °F 69% 29.98 in 10.0 mi SW 10.4 mph 19.6 mph N/A   Partly Cloudy
2:54 PM 79.0 °F - 66.0 °F 64% 29.96 in 10.0 mi SSW 12.7 mph - N/A   Partly Cloudy
3:54 PM 79.0 °F - 64.9 °F 62% 29.94 in 10.0 mi SSW 19.6 mph 25.3 mph 0.03 in   Mostly Cloudy
4:54 PM 81.0 °F 81.9 °F 62.1 °F 52% 29.92 in 10.0 mi SSW 13.8 mph 24.2 mph N/A   Scattered Clouds
5:54 PM 82.0 °F 83.1 °F 63.0 °F 52% 29.92 in 10.0 mi SW 12.7 mph 20.7 mph N/A   Partly Cloudy
6:54 PM 79.0 °F - 61.0 °F 54% 29.92 in 10.0 mi SSW 15.0 mph 23.0 mph N/A   Mostly Cloudy
7:54 PM 77.0 °F - 62.1 °F 60% 29.92 in 10.0 mi SSW 9.2 mph - N/A   Mostly Cloudy
8:54 PM 78.1 °F - 59.0 °F 52% 29.94 in 10.0 mi SW 11.5 mph 17.3 mph N/A   Overcast
9:54 PM 75.0 °F - 59.0 °F 57% 29.94 in 10.0 mi SSW 11.5 mph - N/A   Overcast
10:54 PM 73.9 °F - 59.0 °F 59% 29.95 in 10.0 mi SSW 11.5 mph - N/A   Mostly Cloudy
11:54 PM 73.0 °F - 59.0 °F 61% 29.95 in 10.0 mi SSW 10.4 mph - N/A   Mostly Cloudy